Wind_Speed
32 30 29 29 26 26 34 42 39 39 21 29 25 30 32 38 27 9 8 23 22 18 19 24 23 25 24 23 22 21 19 18 17 18 18 16 15 13 11 9 8 7 6 5 5 4 5 6 6
32 32 34 34 35 32 47 45 39 42 37 34 27 36 35 45 32 30 15 9 18 25 17 23 25 27 26 24 23 21 21 20 19 17 15 15 13 12 11 9 8 7 6 6 6 5 6 7 6
34 39 39 38 41 52 49 40 42 42 37 33 35 39 38 39 42 28 24 14 10 16 24 21 27 27 25 24 23 22 22 22 18 16 15 14 13 12 11 10 9 8 8 8 8 7 7 8 7
38 38 42 46 44 60 56 47 46 41 29 32 40 37 34 39 36 33 34 25 18 16 16 26 29 28 27 26 24 24 24 23 17 14 14 13 13 12 10 10 9 10 10 9 8 8 9 9 8
39 41 45 43 52 57 49 45 40 38 35 39 31 46 41 38 32 34 33 36 24 24 16 26 31 30 28 27 25 25 24 24 18 15 14 14 13 12 11 11 12 11 11 10 9 9 10 8 8
44 48 41 51 50 54 57 53 46 39 31 31 28 34 37 40 43 20 33 30 27 28 21 26 34 33 30 28 27 27 25 24 17 15 15 15 14 13 12 13 13 12 11 10 10 10 9 8 7
52 52 54 48 50 55 45 47 50 38 39 35 31 35 39 38 36 27 27 33 28 31 27 27 36 35 32 29 29 27 27 24 19 17 17 16 15 14 14 14 14 12 11 11 11 10 9 8 5
50 53 49 55 47 57 45 28 27 31 44 35 30 32 44 36 37 38 29 27 29 31 29 23 37 36 33 32 31 28 26 24 20 19 18 17 15 15 15 16 14 13 12 12 11 9 8 7 5
54 42 56 69 50 51 36 33 31 26 35 35 40 27 21 30 38 46 33 33 31 31 33 32 36 37 34 33 31 28 25 23 21 20 20 18 16 16 17 16 14 13 12 12 9 8 8 6 4
48 65 73 48 48 49 42 27 27 29 33 38 31 25 21 20 29 40 46 34 35 34 34 38 38 38 36 34 31 27 25 23 19 20 21 19 16 18 19 17 15 14 13 11 9 8 8 5 4
65 59 68 57 47 47 42 35 27 30 28 31 32 28 27 26 20 30 30 44 37 32 35 41 38 38 38 33 30 27 25 23 21 22 21 18 17 19 20 18 17 15 13 11 10 9 7 6 5
63 65 61 47 56 45 43 36 32 34 29 18 26 24 23 23 31 29 37 40 38 37 39 39 40 36 36 33 31 27 25 25 23 22 21 19 21 21 21 20 18 17 13 12 11 9 8 6 6
70 75 52 55 51 56 46 43 42 29 28 24 25 29 26 22 25 29 34 44 41 37 33 40 37 37 35 34 30 29 27 25 25 22 20 21 21 21 22 21 21 16 14 14 11 9 8 7 6
57 72 67 54 47 47 46 45 46 33 30 26 34 33 28 24 23 20 33 44 52 44 45 45 39 36 34 33 32 29 27 25 26 23 22 23 22 23 23 24 20 17 17 14 12 10 9 8 8
66 44 75 70 47 64 52 48 51 42 35 24 34 35 30 25 23 22 29 40 57 52 44 49 37 39 36 32 30 29 26 25 25 25 25 25 23 23 23 25 20 20 18 16 14 12 10 10 10
42 64 48 87 50 53 47 45 55 44 40 28 32 32 29 28 24 23 20 36 49 53 41 37 42 39 40 37 31 30 28 24 25 26 26 26 24 23 26 24 21 22 19 18 17 14 12 12 11
54 45 56 60 66 56 40 55 48 49 50 36 32 35 31 31 30 26 23 29 52 57 31 30 37 39 35 41 39 31 28 25 27 28 27 26 25 25 26 25 23 24 20 20 19 15 14 13 13
44 50 43 55 53 62 37 42 37 50 49 51 40 33 34 36 33 26 24 22 38 46 30 25 28 36 36 28 32 32 30 29 29 30 28 28 27 27 26 24 25 24 21 22 20 18 16 15 15
29 52 43 49 54 49 65 36 37 39 53 44 42 43 39 37 32 29 30 26 35 48 31 27 27 29 33 41 31 28 29 31 31 30 30 29 29 29 26 25 26 24 24 24 22 21 17 17 17
49 37 56 42 25 46 42 61 34 35 33 45 46 40 39 40 36 33 29 30 40 49 34 27 28 22 28 30 27 25 25 26 28 29 29 30 30 29 28 29 26 25 26 24 23 22 20 18 19
42 31 55 42 26 32 40 49 35 37 35 28 37 39 33 30 33 39 28 23 49 61 42 30 28 22 17 15 28 31 29 30 31 30 31 31 32 33 31 28 27 27 27 24 24 23 22 21 21
34 32 44 45 34 24 38 7 42 39 42 41 38 31 36 34 33 35 25 20 56 51 33 32 25 21 16 21 32 34 30 26 25 28 31 32 32 32 30 30 30 30 27 27 25 25 24 23 22
13 18 29 42 37 27 34 16 8 36 43 43 42 44 38 36 34 34 31 13 32 50 35 32 25 26 25 25 39 35 29 31 31 30 31 30 31 33 33 32 32 30 29 29 26 26 26 25 24
26 25 27 22 33 14 22 11 15 39 46 41 39 40 42 40 35 34 35 25 32 33 44 42 35 35 31 31 29 28 31 32 36 35 32 32 33 34 33 33 33 32 32 30 28 29 28 26 26
24 19 5 8 8 5 36 15 12 30 37 38 38 37 38 37 38 39 35 40 32 33 37 44 34 51 35 33 32 31 31 33 37 38 37 35 34 34 33 33 33 33 32 31 30 30 29 28 28
22 19 1 4 5 5 30 13 22 13 25 23 27 35 38 38 39 41 40 44 39 30 39 32 34 42 37 39 39 37 38 37 40 42 40 39 37 34 32 32 32 33 33 32 32 31 31 31 29
8 12 10 4 9 5 10 11 10 26 17 23 19 26 44 40 45 45 47 48 40 41 38 39 36 41 44 45 45 43 43 38 38 38 41 42 40 39 36 35 34 33 33 33 33 32 32 33 32
9 7 6 9 4 6 6 11 7 16 18 18 22 22 32 36 36 40 46 42 39 39 38 41 40 47 48 43 44 41 40 40 39 38 42 42 42 42 40 39 38 37 35 34 35 34 34 35 34
14 6 6 3 2 3 6 8 4 12 22 24 26 28 33 34 33 28 36 40 40 37 39 41 35 40 46 44 45 43 45 43 41 40 41 40 41 43 42 44 41 39 37 36 37 36 36 37 36
10 5 12 1 2 4 8 5 8 10 18 29 34 36 36 34 33 30 30 35 37 37 37 43 39 39 41 42 42 44 41 45 44 41 41 41 40 40 44 46 43 42 41 40 38 37 38 38 36
Wind_Direction
222 221 222 228 228 231 239 234 240 239 233 236 235 230 238 222 219 208 206 209 205 209 195 201 203 194 195 197 196 194 197 189 188 188 186 184 183 181 179 177 180 183 181 179 183 177 177 147 119
221 219 221 226 228 232 239 238 242 241 240 241 246 236 231 229 228 229 242 178 215 215 207 200 198 196 196 196 195 194 192 189 185 185 183 183 183 180 183 180 184 182 181 183 168 168 175 138 134
220 222 223 220 229 232 237 236 241 245 248 243 233 230 218 221 220 239 216 194 186 219 213 208 197 198 197 195 195 197 193 191 189 192 189 189 187 185 185 184 180 181 178 173 159 169 164 130 147
218 222 228 226 227 241 243 239 243 247 245 243 245 239 231 209 218 220 227 231 218 235 220 210 198 197 197 198 198 198 194 196 197 202 198 197 192 190 188 185 178 179 174 164 164 171 149 139 155
217 221 224 230 234 242 247 249 237 246 251 248 232 237 236 217 211 200 207 223 228 232 239 216 198 196 199 202 197 198 197 196 204 207 206 202 196 191 193 182 179 176 175 167 167 170 142 158 161
215 218 224 233 239 245 248 242 247 240 228 229 236 237 241 240 235 211 203 214 225 225 235 218 200 196 199 201 199 199 200 196 207 209 207 204 199 194 193 182 179 180 175 168 173 166 146 176 170
220 218 226 234 240 246 247 245 244 244 224 231 245 230 240 236 247 204 199 215 211 214 220 212 199 197 199 198 201 200 199 206 213 210 208 205 201 196 192 186 183 183 179 175 174 164 168 193 180
225 225 232 233 236 246 245 240 243 240 234 245 228 225 225 235 233 206 198 209 207 198 204 210 208 198 198 197 201 201 203 212 212 209 209 205 203 199 192 189 186 186 181 180 177 167 187 205 202
222 215 223 232 225 239 239 233 236 239 228 233 217 224 215 234 226 223 200 210 203 203 202 210 212 200 199 199 200 201 207 210 209 208 207 205 202 199 195 193 191 187 185 182 173 181 205 206 212
222 225 231 225 227 231 233 224 230 223 231 218 224 236 238 233 224 221 217 228 208 203 203 210 203 202 200 203 203 206 210 213 210 211 210 205 200 200 198 194 195 187 189 179 183 199 207 203 209
222 230 235 234 237 235 239 226 237 230 221 216 224 233 233 239 230 220 217 220 206 204 202 195 198 202 204 206 208 210 214 216 212 215 212 202 204 203 200 199 198 191 190 186 195 206 203 201 212
224 230 230 237 232 233 232 216 226 233 229 230 227 238 236 238 241 216 221 219 202 208 196 195 202 201 204 206 208 211 217 218 216 215 214 205 205 205 204 205 200 198 194 201 206 208 209 210 223
229 226 231 231 237 239 222 215 212 227 216 232 229 232 239 243 239 239 214 213 209 200 199 203 200 203 205 206 206 209 214 218 219 214 213 212 208 207 206 210 207 199 205 213 218 222 226 231 245
226 230 223 233 227 204 213 221 222 218 209 227 235 238 241 243 237 263 229 213 213 211 208 199 203 207 207 210 209 209 211 215 218 215 211 213 212 211 210 214 210 207 216 218 228 234 245 256 266
220 233 232 239 235 231 230 229 227 217 205 233 230 237 237 241 242 253 243 220 210 218 205 206 214 205 209 213 214 215 213 213 218 215 213 215 215 215 215 218 211 217 220 227 235 241 251 263 272
228 233 230 227 235 217 212 219 228 225 201 226 229 231 235 239 254 253 270 225 213 204 199 192 197 214 210 210 214 211 212 210 214 217 215 217 219 216 220 220 218 225 225 232 239 245 254 266 271
217 226 229 234 225 234 214 230 226 224 209 219 223 228 231 239 242 246 261 226 210 213 189 195 205 204 217 223 218 207 206 208 212 215 215 218 220 221 223 222 224 229 228 237 242 247 256 265 274
213 222 228 233 225 224 227 215 224 221 215 205 218 222 228 234 242 250 261 274 230 189 184 185 195 205 204 211 220 212 207 209 211 215 214 218 220 223 224 225 230 232 234 241 247 250 255 264 269
220 218 226 228 230 216 229 223 217 217 211 205 216 221 224 232 242 242 247 268 228 184 190 186 196 202 214 215 208 209 207 211 212 216 216 217 221 225 225 228 233 235 238 241 245 253 254 262 267
229 232 224 224 226 214 223 231 215 205 199 213 211 216 227 231 232 231 251 266 224 192 191 197 192 197 214 206 216 211 209 214 216 220 223 223 223 224 227 229 233 236 240 243 248 253 254 260 267
233 249 209 213 213 213 218 233 232 204 204 196 212 220 223 223 225 225 249 268 213 189 196 191 192 194 202 208 219 215 208 214 218 218 222 223 225 224 227 232 234 238 241 245 248 252 256 259 264
237 231 213 202 204 208 201 222 229 214 209 210 211 215 211 217 224 226 244 271 208 190 196 193 205 212 216 219 220 219 217 219 223 222 226 227 228 230 229 232 234 239 242 246 249 252 257 259 264
227 218 212 187 193 200 196 213 198 198 207 207 209 217 221 217 219 229 228 236 229 204 203 202 211 209 221 224 217 215 220 225 226 228 231 231 231 232 231 233 237 240 243 246 248 252 256 259 264
230 242 205 184 201 217 197 167 192 196 207 211 211 216 223 226 229 228 228 213 225 222 219 212 211 201 209 218 226 233 228 228 231 231 231 230 233 236 234 235 236 239 243 246 248 250 254 259 264
205 225 172 167 178 201 206 198 202 210 209 216 218 219 220 228 238 235 228 220 227 231 227 209 214 213 210 224 231 235 242 238 236 237 238 239 238 238 237 239 241 242 244 246 249 252 256 258 261
202 199 84 126 140 122 176 197 212 180 198 199 212 220 224 229 234 237 237 232 231 230 229 221 221 216 226 237 245 252 252 242 237 234 235 238 240 243 244 244 244 245 246 247 248 252 255 259 261
187 215 252 295 115 106 169 155 170 196 206 202 202 216 217 223 225 226 231 230 241 233 231 226 225 223 238 253 254 256 247 245 239 236 238 238 238 239 240 241 242 244 245 246 248 250 254 258 261
185 149 138 173 188 129 186 66 62 174 189 176 189 188 201 213 220 226 229 224 220 217 225 224 229 234 244 236 250 249 245 243 243 240 238 240 239 239 239 239 239 241 242 243 245 247 251 257 261
211 176 231 156 140 132 136 91 65 152 182 185 186 186 188 196 202 211 220 224 206 202 211 220 231 230 236 232 235 235 240 242 239 235 236 238 240 240 240 239 238 240 243 243 244 246 250 255 258
110 192 194 270 18 33 99 121 164 182 172 183 192 194 200 198 200 207 211 216 214 209 213 213 222 227 232 236 239 240 240 238 239 235 236 236 238 239 237 237 236 238 240 242 243 246 250 254 257
Height
3087 3091 3093 3094 3096 3084 3075 3077 3085 3091 3096 3099 3102 3105 3108 3110 3112 3117 3115 3118 3121 3125 3125 3128 3132 3136 3139 3143 3145 3148 3151 3153 3155 3157 3159 3161 3164 3165 3167 3168 3170 3171 3173 3174 3175 3175 3176 3176 3175
3083 3085 3087 3085 3080 3073 3062 3072 3077 3083 3092 3092 3095 3099 3101 3102 3107 3110 3115 3115 3120 3123 3124 3126 3130 3133 3137 3140 3143 3146 3149 3151 3154 3156 3158 3160 3163 3164 3166 3167 3169 3171 3172 3173 3174 3175 3176 3175 3175
3077 3077 3079 3073 3066 3055 3053 3065 3072 3078 3085 3088 3090 3093 3096 3095 3101 3106 3112 3112 3116 3119 3121 3124 3127 3131 3134 3137 3140 3144 3146 3150 3152 3155 3157 3159 3161 3163 3164 3166 3168 3170 3172 3173 3174 3175 3175 3174 3176
3067 3071 3071 3060 3048 3041 3049 3062 3068 3074 3079 3081 3083 3084 3087 3092 3094 3099 3105 3109 3114 3116 3119 3121 3123 3127 3131 3134 3138 3141 3144 3148 3151 3154 3156 3158 3161 3162 3164 3166 3168 3170 3171 3171 3173 3176 3175 3175 3177
3060 3060 3057 3044 3040 3043 3048 3054 3062 3066 3071 3073 3077 3077 3082 3089 3091 3093 3100 3105 3108 3113 3115 3118 3120 3124 3127 3131 3134 3138 3142 3145 3149 3152 3155 3157 3159 3161 3163 3164 3166 3168 3170 3171 3173 3175 3174 3177 3177
3050 3048 3042 3032 3035 3038 3041 3048 3052 3059 3065 3068 3070 3074 3076 3084 3087 3086 3091 3097 3102 3108 3111 3114 3116 3120 3124 3128 3131 3135 3139 3143 3147 3150 3153 3155 3157 3159 3162 3163 3165 3167 3169 3170 3173 3174 3174 3177 3177
3033 3035 3026 3030 3030 3031 3033 3045 3047 3053 3058 3062 3066 3065 3069 3076 3080 3083 3088 3093 3097 3102 3107 3110 3112 3116 3121 3125 3129 3132 3136 3141 3144 3147 3151 3153 3155 3157 3160 3163 3165 3167 3169 3170 3171 3173 3174 3177 3177
3025 3029 3025 3019 3020 3017 3033 3039 3043 3046 3053 3061 3060 3060 3062 3068 3074 3077 3082 3088 3092 3095 3101 3105 3109 3112 3116 3121 3125 3130 3133 3138 3141 3144 3149 3151 3154 3156 3159 3162 3163 3166 3168 3169 3171 3172 3175 3176 3176
3018 3013 3004 2997 3010 3019 3029 3034 3038 3041 3045 3048 3053 3049 3060 3065 3071 3075 3078 3083 3084 3088 3093 3099 3105 3108 3113 3117 3121 3126 3131 3135 3138 3142 3146 3149 3152 3155 3158 3161 3163 3164 3166 3169 3169 3171 3174 3174 3175
2995 2997 2980 3002 3010 3014 3025 3031 3035 3035 3036 3042 3044 3048 3055 3060 3064 3069 3074 3078 3076 3082 3086 3094 3099 3103 3108 3113 3118 3123 3127 3132 3136 3140 3144 3147 3150 3153 3157 3159 3161 3163 3165 3167 3168 3171 3173 3173 3174
2986 2977 2985 2997 3006 3012 3019 3027 3031 3031 3031 3035 3040 3048 3053 3057 3059 3063 3066 3071 3075 3077 3082 3087 3093 3098 3103 3108 3114 3120 3124 3129 3132 3137 3141 3145 3148 3151 3154 3156 3160 3162 3164 3165 3168 3170 3171 3172 3173
2976 2976 2981 2991 3000 3007 3011 3023 3023 3023 3027 3034 3042 3047 3049 3053 3055 3057 3059 3064 3065 3073 3076 3082 3088 3092 3099 3105 3110 3116 3121 3125 3129 3134 3139 3142 3144 3148 3151 3156 3157 3160 3161 3165 3167 3168 3170 3171 3172
2962 2967 2976 2988 2994 2996 3009 3010 3013 3018 3025 3032 3036 3040 3045 3048 3050 3052 3054 3058 3063 3066 3069 3074 3081 3088 3094 3100 3105 3111 3116 3121 3125 3131 3136 3140 3141 3146 3149 3153 3155 3157 3160 3163 3165 3167 3168 3169 3170
2957 2964 2969 2973 2977 2985 2993 3002 3009 3011 3022 3025 3029 3035 3039 3041 3044 3045 3049 3053 3057 3063 3067 3068 3075 3083 3089 3096 3102 3107 3111 3117 3121 3128 3132 3135 3138 3143 3146 3150 3152 3154 3159 3160 3163 3165 3167 3168 3168
2948 2954 2961 2959 2969 2976 2988 2994 2993 3005 3016 3016 3023 3028 3032 3034 3038 3041 3042 3045 3051 3058 3061 3066 3067 3077 3084 3090 3096 3102 3107 3112 3117 3123 3127 3131 3134 3140 3143 3147 3148 3153 3155 3158 3160 3162 3163 3165 3166
2941 2948 2946 2937 2960 2967 2976 2975 2986 2998 3008 3011 3016 3020 3023 3027 3032 3035 3036 3038 3043 3050 3055 3060 3067 3073 3079 3084 3089 3096 3102 3107 3112 3118 3122 3126 3132 3135 3140 3144 3145 3149 3152 3155 3158 3159 3160 3162 3163
2930 2928 2933 2939 2953 2957 2958 2962 2979 2990 2998 3004 3010 3013 3017 3022 3025 3028 3031 3034 3037 3044 3050 3055 3062 3067 3073 3078 3085 3091 3097 3103 3107 3112 3117 3122 3128 3132 3137 3139 3141 3145 3148 3151 3154 3156 3158 3159 3160
2912 2920 2924 2927 2938 2951 2953 2958 2969 2978 2986 2993 3001 3006 3011 3014 3018 3022 3026 3030 3034 3038 3045 3050 3057 3062 3067 3072 3079 3085 3091 3096 3101 3106 3111 3117 3122 3127 3132 3133 3138 3141 3144 3148 3150 3152 3154 3155 3157
2909 2918 2919 2923 2937 2942 2946 2954 2964 2970 2979 2987 2992 2998 3003 3010 3015 3018 3021 3025 3028 3031 3039 3044 3050 3055 3059 3067 3071 3078 3085 3092 3096 3101 3106 3111 3117 3123 3126 3129 3133 3136 3140 3142 3144 3148 3150 3151 3152
2903 2907 2912 2924 2933 2940 2943 2948 2956 2966 2970 2977 2985 2992 2997 3006 3008 3011 3015 3016 3018 3027 3034 3040 3045 3051 3058 3061 3069 3076 3081 3086 3091 3095 3101 3107 3113 3117 3120 3124 3128 3132 3135 3138 3140 3143 3145 3146 3148
2895 2895 2906 2917 2929 2934 2938 2943 2946 2956 2966 2973 2980 2985 2992 2997 3001 3007 3011 3010 3012 3019 3026 3033 3040 3046 3051 3056 3062 3067 3072 3078 3082 3089 3096 3101 3105 3109 3114 3119 3123 3127 3130 3133 3135 3137 3140 3141 3143
2890 2894 2902 2914 2924 2924 2930 2936 2936 2947 2957 2966 2975 2980 2984 2989 2995 3001 3006 3007 3008 3014 3021 3026 3035 3041 3045 3049 3054 3061 3068 3073 3080 3085 3091 3094 3100 3105 3109 3113 3116 3120 3124 3128 3130 3132 3134 3137 3138
2882 2888 2891 2904 2917 2923 2923 2935 2931 2941 2949 2956 2963 2969 2976 2984 2992 2996 3002 3003 3004 3013 3018 3022 3027 3032 3039 3045 3050 3055 3059 3068 3074 3079 3085 3088 3093 3099 3103 3106 3110 3114 3118 3121 3124 3127 3129 3130 3132
2882 2887 2887 2899 2911 2913 2916 2921 2929 2936 2938 2949 2958 2966 2973 2979 2986 2992 2999 3003 3007 3011 3012 3017 3022 3030 3035 3041 3044 3049 3056 3062 3068 3072 3077 3082 3087 3091 3095 3098 3103 3107 3111 3115 3118 3120 3123 3124 3127
2881 2882 2878 2889 2897 2897 2911 2920 2922 2930 2938 2944 2951 2959 2967 2975 2980 2984 2991 2995 3000 3005 3007 3011 3018 3024 3030 3036 3042 3049 3053 3057 3062 3066 3072 3076 3080 3084 3088 3092 3096 3100 3105 3109 3111 3115 3116 3118 3120
2871 2874 2871 2877 2886 2898 2907 2913 2916 2932 2939 2941 2945 2957 2963 2969 2975 2981 2986 2990 2995 2998 3004 3008 3015 3023 3026 3030 3034 3040 3045 3048 3053 3058 3062 3067 3073 3078 3083 3086 3090 3094 3098 3101 3105 3107 3110 3112 3114
2873 2871 2872 2883 2884 2892 2904 2909 2919 2930 2930 2934 2939 2944 2951 2956 2963 2968 2973 2981 2987 2993 2998 3005 3011 3014 3019 3022 3026 3030 3035 3039 3044 3049 3054 3059 3064 3069 3074 3078 3082 3086 3090 3094 3097 3100 3103 3105 3106
2871 2874 2879 2883 2881 2888 2898 2905 2916 2919 2923 2929 2935 2939 2943 2948 2954 2960 2963 2967 2973 2980 2992 2995 3002 3008 3013 3018 3018 3021 3026 3030 3034 3039 3044 3050 3055 3060 3064 3069 3074 3077 3082 3085 3089 3093 3095 3097 3098
2876 2878 2879 2879 2879 2880 2895 2914 2919 2914 2917 2923 2931 2936 2940 2944 2946 2951 2956 2960 2964 2973 2979 2987 2991 2996 3000 3005 3009 3013 3016 3019 3022 3028 3034 3040 3045 3050 3055 3060 3064 3068 3073 3077 3081 3085 3087 3089 3090
2872 2878 2880 2881 2881 2880 2886 2914 2912 2912 2912 2915 2921 2927 2933 2938 2942 2946 2949 2953 2958 2964 2969 2974 2980 2984 2989 2993 2998 3001 3005 3008 3012 3019 3025 3030 3036 3040 3046 3050 3053 3058 3064 3069 3072 3076 3079 3081 3082